Погода в Иноземцево

Россия / Ставропольский край     44°05′49″N   43°05′22″E
темп.,
°C
ветер,
м/с
пор.,
м/с
влажн.,
%
обл.,
%
осадки,
мм/ч
давл.,
гПа
погр.,
м
23 января, сб
сб2300:00−2ю22480 0.0 102825
03:00−2ю22420 0.0 102722
06:00−2ююв12420 0.0 102721
09:00−1юв22471 0.0 102728
12:00+2юв484717 0.0 1025363
15:00+2вюв23548 0.0 1024164
18:00−1юв22640 0.0 102528
21:00−1юв125823 0.0 102530
24 января, вс
вс2400:00−1ююв1156100 0.0 102424
03:00−1ю115354 0.0 102421
06:00−1ю11490 0.0 102221
09:00+1ююв11460 0.0 102223
12:00+4в22480 0.0 1020100
15:00+3вюв226221 0.0 101881
18:00+1юв2264100 0.0 102026
21:00+1ююв1156100 0.0 102022
25 января, пн
пн2500:00+2ю1150100 0.0 101922
03:00+3зюз1145100 0.0 101922
06:00+3зюз114480 0.0 102022
09:00+4ююз114166 0.0 102022
12:00+7вюв114455 0.0 101857
15:00+6вюв225928 0.0 101675
18:00+2юв22632 0.0 101724
21:00+2юв125951 0.0 101823
26 января, вт
вт2600:00+3ю1153100 0.0 101822
03:00+4юз1243100 0.0 101922
06:00+3юз124088 0.0 101822
09:00+5ююз223786 0.0 101822
12:00+9ююв1141100 0.0 101625
15:00+7вюв2251100 0.0 101537
18:00+4ююв1156100 0.0 101722
21:00+4зюз1155100 0.0 101722
27 января, ср
ср2700:00+3сз226693 0.0 101825
03:00+2з236796 0.0 101728
06:00+2зюз117287 0.0 101622
09:00+3юв127378 0.0 101522
12:00+4в2266100 0.0 1012171
15:00+4в2273100 0.0 1010158
18:00+1вюв1288100 0.0 101049
21:00+1юв1179100 0.0 100828